When you browse on this site, cookies collect data to enhance your experience and personalize the content and advertising you see.
Visit our Privacy Policy to learn more. By continuing to use the site, you agree to this use of cookies and data.
  • In Denmark
  • List of Countries
  • For 7 days
  • Water Temperature
  • Satellite Maps
  • Weather Map
  • Weather Widgets
  • user-avatar
    Login

    Hourly Weather Kozani

    Today, 22 March, Friday

    Time Temperature Precipitation Wind Pressure Humidity
    00:00 +8°C° 0.1 mm 1 mps 712 mmHg 85%
    01:00 +8°C° 0 mm 1 mps 711 mmHg 84%
    02:00 +7°C° 0 mm 0 mps 711 mmHg 85%
    03:00 +7°C° 0 mm 0 mps 711 mmHg 87%
    04:00 +6°C° 0 mm 0 mps 711 mmHg 88%
    05:00 +6°C° 0 mm 0 mps 711 mmHg 87%
    06:00 +8°C° 0 mm 1 mps 711 mmHg 86%
    07:00 +8°C° 0 mm 1 mps 711 mmHg 84%
    08:00 +9°C° 0 mm 1 mps 711 mmHg 80%
    09:00 +10°C° 0 mm 1 mps 711 mmHg 75%
    10:00 +11°C° 0 mm 1 mps 711 mmHg 70%
    11:00 +12°C° 0 mm 1 mps 711 mmHg 67%
    12:00 +12°C° 0 mm 1 mps 711 mmHg 63%
    13:00 +14°C° 0 mm 1 mps 710 mmHg 57%
    14:00 +14°C° 0 mm 1 mps 710 mmHg 57%
    15:00 +14°C° 0 mm 1 mps 709 mmHg 56%
    16:00 +14°C° 0 mm 1 mps 709 mmHg 55%
    17:00 +12°C° 0 mm 1 mps 709 mmHg 62%
    18:00 +11°C° 0 mm 1 mps 709 mmHg 69%
    19:00 +9°C° 0 mm 1 mps 709 mmHg 76%
    20:00 +9°C° 0 mm 1 mps 709 mmHg 78%
    21:00 +8°C° 0 mm 1 mps 709 mmHg 80%
    22:00 +7°C° 0 mm 0 mps 709 mmHg 82%
    23:00 +6°C° 0 mm 0 mps 709 mmHg 83%

    Tomorrow, 23 March, Saturday

    Time Temperature Precipitation Wind Pressure Humidity
    00:00 +6°C° 0 mm 0 mps 709 mmHg 83%
    01:00 +6°C° 0 mm 0 mps 709 mmHg 84%
    02:00 +5°C° 0 mm 0 mps 709 mmHg 84%
    03:00 +6°C° 0 mm 1 mps 708 mmHg 85%
    04:00 +6°C° 0 mm 1 mps 708 mmHg 86%
    05:00 +7°C° 0 mm 1 mps 708 mmHg 82%
    06:00 +7°C° 0 mm 1 mps 708 mmHg 79%
    07:00 +8°C° 0 mm 1 mps 709 mmHg 75%
    08:00 +10°C° 0 mm 1 mps 709 mmHg 69%
    09:00 +12°C° 0 mm 1 mps 709 mmHg 62%
    10:00 +13°C° 0 mm 1 mps 708 mmHg 55%
    11:00 +14°C° 0 mm 1 mps 708 mmHg 53%
    12:00 +15°C° 0 mm 2 mps 708 mmHg 50%
    13:00 +16°C° 0 mm 2 mps 708 mmHg 48%
    14:00 +16°C° 0 mm 2 mps 707 mmHg 48%
    15:00 +16°C° 0 mm 2 mps 707 mmHg 49%
    16:00 +16°C° 0 mm 2 mps 707 mmHg 49%
    17:00 +14°C° 0 mm 1 mps 707 mmHg 57%
    18:00 +12°C° 0 mm 1 mps 707 mmHg 64%
    19:00 +11°C° 0 mm 1 mps 706 mmHg 71%
    20:00 +10°C° 0 mm 1 mps 707 mmHg 73%
    21:00 +9°C° 0 mm 1 mps 707 mmHg 75%
    22:00 +8°C° 0 mm 0 mps 707 mmHg 77%
    23:00 +9°C° 0 mm 1 mps 707 mmHg 78%

    Day after tomorrow, 24 March, Sunday

    Time Temperature Precipitation Wind Pressure Humidity
    00:00 +8°C° 0 mm 1 mps 707 mmHg 78%
    01:00 +8°C° 0 mm 1 mps 707 mmHg 79%
    02:00 +7°C° 0 mm 1 mps 707 mmHg 81%
    03:00 +7°C° 0 mm 1 mps 707 mmHg 82%
    04:00 +7°C° 0 mm 1 mps 707 mmHg 83%
    05:00 +7°C° 0 mm 1 mps 707 mmHg 82%
    06:00 +8°C° 0 mm 1 mps 707 mmHg 80%
    07:00 +9°C° 0 mm 1 mps 707 mmHg 78%
    08:00 +10°C° 0 mm 1 mps 707 mmHg 71%
    09:00 +12°C° 0 mm 1 mps 708 mmHg 65%
    10:00 +14°C° 0 mm 2 mps 708 mmHg 58%
    11:00 +15°C° 0 mm 2 mps 708 mmHg 54%
    12:00 +16°C° 0 mm 1 mps 707 mmHg 50%
    13:00 +18°C° 0 mm 1 mps 707 mmHg 46%
    14:00 +18°C° 0 mm 1 mps 707 mmHg 46%
    15:00 +18°C° 0 mm 1 mps 706 mmHg 47%
    16:00 +18°C° 0 mm 1 mps 706 mmHg 47%
    17:00 +15°C° 0 mm 1 mps 706 mmHg 54%
    18:00 +13°C° 0 mm 1 mps 706 mmHg 60%
    19:00 +11°C° 0 mm 1 mps 706 mmHg 67%
    20:00 +11°C° 0 mm 1 mps 706 mmHg 70%
    21:00 +9°C° 0 mm 0 mps 706 mmHg 72%
    22:00 +8°C° 0 mm 0 mps 706 mmHg 74%
    23:00 +8°C° 0 mm 0 mps 706 mmHg 76%

    25 March, Monday

    Time Temperature Precipitation Wind Pressure Humidity
    00:00 +8°C° 0 mm 0 mps 706 mmHg 77%
    01:00 +7°C° 0 mm 0 mps 706 mmHg 78%
    02:00 +7°C° 0 mm 0 mps 705 mmHg 80%
    03:00 +7°C° 0 mm 0 mps 705 mmHg 81%
    04:00 +6°C° 0 mm 0 mps 705 mmHg 82%
    05:00 +7°C° 0 mm 0 mps 705 mmHg 79%
    06:00 +8°C° 0 mm 0 mps 705 mmHg 77%
    07:00 +9°C° 0 mm 0 mps 705 mmHg 74%
    08:00 +11°C° 0 mm 0 mps 705 mmHg 66%
    09:00 +13°C° 0 mm 0 mps 705 mmHg 58%
    10:00 +16°C° 0 mm 1 mps 705 mmHg 49%
    11:00 +16°C° 0 mm 0 mps 705 mmHg 46%
    12:00 +17°C° 0 mm 0 mps 704 mmHg 43%
    13:00 +18°C° 0 mm 0 mps 704 mmHg 40%
    14:00 +20°C° 0 mm 1 mps 703 mmHg 40%
    15:00 +19°C° 0 mm 1 mps 703 mmHg 41%
    16:00 +19°C° 0 mm 1 mps 702 mmHg 41%
    17:00 +18°C° 0 mm 1 mps 702 mmHg 49%
    18:00 +15°C° 0 mm 1 mps 702 mmHg 57%
    19:00 +13°C° 0 mm 1 mps 702 mmHg 64%
    20:00 +12°C° 0 mm 1 mps 702 mmHg 67%
    21:00 +12°C° 0 mm 1 mps 702 mmHg 70%
    22:00 +11°C° 0 mm 1 mps 702 mmHg 73%
    23:00 +11°C° 0 mm 1 mps 701 mmHg 75%

    26 March, Tuesday

    Time Temperature Precipitation Wind Pressure Humidity
    00:00 +10°C° 0 mm 1 mps 701 mmHg 76%
    01:00 +9°C° 0 mm 1 mps 701 mmHg 77%
    02:00 +9°C° 0 mm 1 mps 700 mmHg 77%
    03:00 +9°C° 0 mm 1 mps 700 mmHg 77%
    04:00 +8°C° 0 mm 1 mps 700 mmHg 77%
    05:00 +9°C° 0 mm 1 mps 700 mmHg 74%
    06:00 +9°C° 0 mm 1 mps 700 mmHg 71%
    07:00 +10°C° 0 mm 1 mps 701 mmHg 67%
    08:00 +10°C° 0 mm 2 mps 701 mmHg 63%
    09:00 +12°C° 0 mm 2 mps 701 mmHg 59%
    10:00 +13°C° 0 mm 3 mps 701 mmHg 55%
    11:00 +13°C° 0 mm 3 mps 701 mmHg 53%
    12:00 +13°C° 0 mm 3 mps 700 mmHg 51%
    13:00 +14°C° 0 mm 3 mps 700 mmHg 49%
    14:00 +13°C° 0 mm 3 mps 700 mmHg 50%
    15:00 +13°C° 0 mm 4 mps 700 mmHg 51%
    16:00 +12°C° 0 mm 4 mps 700 mmHg 51%
    17:00 +10°C° 0.4 mm 4 mps 700 mmHg 54%
    18:00 +8°C° 0.4 mm 4 mps 700 mmHg 57%
    19:00 +7°C° 0.4 mm 3 mps 700 mmHg 59%
    20:00 +5°C° 1.2 mm 3 mps 701 mmHg 67%
    21:00 +4°C° 1.2 mm 3 mps 701 mmHg 74%
    22:00 +3°C° 1.2 mm 3 mps 701 mmHg 82%
    23:00 +3°C° 1.3 mm 3 mps 701 mmHg 85%

    27 March, Wednesday

    Time Temperature Precipitation Wind Pressure Humidity
    00:00 +2°C° 1.3 mm 3 mps 701 mmHg 88%
    01:00 +2°C° 1.3 mm 3 mps 701 mmHg 92%
    02:00 +1°C° 0.8 mm 3 mps 702 mmHg 92%
    03:00 +1°C° 0.8 mm 3 mps 702 mmHg 93%
    04:00 +1°C° 0.8 mm 3 mps 702 mmHg 93%
    05:00 +1°C° 0.3 mm 3 mps 702 mmHg 93%
    06:00 +1°C° 0.3 mm 3 mps 703 mmHg 92%
    07:00 +2°C° 0.3 mm 2 mps 703 mmHg 92%
    08:00 +2°C° 0.2 mm 3 mps 703 mmHg 90%
    09:00 +2°C° 0.2 mm 3 mps 704 mmHg 89%
    10:00 +3°C° 0.2 mm 3 mps 704 mmHg 87%
    11:00 +4°C° 0.1 mm 3 mps 705 mmHg 84%
    12:00 +4°C° 0.1 mm 3 mps 705 mmHg 82%
    13:00 +5°C° 0.1 mm 3 mps 705 mmHg 80%
    14:00 +5°C° 0.1 mm 3 mps 705 mmHg 79%
    15:00 +5°C° 0.1 mm 3 mps 705 mmHg 78%
    16:00 +6°C° 0.1 mm 2 mps 705 mmHg 77%
    17:00 +5°C° 0.1 mm 2 mps 706 mmHg 80%
    18:00 +5°C° 0.1 mm 2 mps 706 mmHg 82%
    19:00 +4°C° 0.1 mm 2 mps 706 mmHg 84%
    20:00 +4°C° 0.1 mm 2 mps 707 mmHg 85%
    21:00 +3°C° 0.1 mm 2 mps 707 mmHg 86%
    22:00 +3°C° 0.1 mm 2 mps 707 mmHg 87%
    23:00 +3°C° 0.3 mm 2 mps 708 mmHg 87%
    Show more